Location: Unspecified
(0.0000°N, 0.0000°E)
Time: 09:25:36
(UTC+00:00)

Vanguard 2 - Pass Details

Date: 20 October 2021
Orbit: 554 x 2936 km, 32.9° (Epoch: 06 December)

Event Time Altitude Azimuth Distance (km) Brightness Sun altitude
Rises 09:03:41 0° 342° (NNW) 2,704 10.1 48.6°
Reaches altitude 10° 09:07:59 10° 28° (NNE) 1,900 9.8 49.6°
Maximum altitude 09:08:36 10° 37° (NE) 1,910 9.9 49.8°
Drops below altitude 10° 09:09:14 10° 45° (NE) 1,959 10.0 49.9°
Sets 09:14:17 0° 88° (E) 3,244 11.3 51.2°
